パンスターズ彗星

C/2012 V1 ( PanSTARRS )

English version
Home page
Updated on April 29, 2014

---------------------------------------------------------------------

・ プロフィール

発見日 2012年11月3日
発見光度 20.4等
発見者 Pan-STARRS 1 telescope (Haleakala)

・ 写真集

・ 軌道要素

Epoch 2013 July 7.0 TT = JDT 2456480.5
T 2013 July 21.51162 TT                                 MPC
q   2.0897455            (2000.0)            P               Q
z  +0.0000824      Peri.  123.32511     +0.72708361     -0.57448308
 +/-0.0000042      Node    85.37884     -0.68497205     -0.64409383
e   0.9998278      Incl.  157.84276     +0.04650498     -0.50508645
From 82 observations 2012 Nov. 3-2013 Aug. 13, mean residual 0".4.

・ 星図

・ 光度変化

        m1 = 13.5 + 5 logΔ + 10.0 log r(t + 200)

        ※ 灰色の曲線は、m1 = 11.5 + 5 logΔ + 10.0 log r の光度曲線です。

---------------------------------------------------------------------

軌道要素はM.P.E.C. 2013-S08に掲載されたものです。
星図はステラナビゲータ Ver.8 (アストロアーツ) で作成したものです。
光度グラフはComet for Windowsで作成したものです。

---------------------------------------------------------------------

Copyright(C) Seiichi Yoshida (comet@aerith.net). All rights reserved.